Orbital elements:
2021 VM25                                                Earth MOID = 0.0520 AU
Epoch 2023 Sept. 13.0 TT = JDT 2460200.5                Veres                   
M 255.59211              (2000.0)            P               Q                  
n   0.46533791     Peri.  318.98269     -0.96350719     -0.25820539             
a   1.6492649      Node   206.30679     +0.26767417     -0.92729320             
e   0.3910845      Incl.    9.16605     +0.00210425     -0.27103008             
P   2.12           H   20.36          G   0.15           U   0                  
Residuals in seconds of arc
041011 695  0.2-  0.2+    220409 O85  0.0   0.2-    220430 G96  0.0   0.0
041011 695  0.1+  0.0     220409 O85  0.2+  0.4-    220430 G96  0.0   0.0
211114 G96  0.1-  0.0     220409 O85  0.1+  0.2-    220430 G96  0.0   0.0
211114 G96  0.1-  0.1-    220409 L34  0.3+  0.5-    220430 I52  0.0   0.0
211114 G96  0.2+  0.4+    220409 L34  0.1-  0.5+    220430 I52  0.0   0.0
211114 G96  0.4+  0.2-    220409 L34  0.4-  0.0     220430 I52  0.0   0.0
211114 V06  0.0   0.1+    220410 W68  0.0   0.0     220430 I52  0.0   0.0
211114 V06  0.1-  0.0     220410 W68  0.1+  0.0     220501 703  0.1+  0.6+
211114 V06  0.2-  0.0     220410 W68  0.0   0.1-    220501 703  0.3+  0.1+
211114 V06  0.1-  0.2-    220410 W68  0.0   0.1-    220501 703  0.0   0.1+
211115 V06  0.0   0.3-    220410 O85  0.3-  0.2-    220501 703  0.1+  0.2-
211115 V06  0.3-  0.0     220410 O85  0.4-  0.2-    220501 T05  0.0   0.0
211115 V06  0.0   0.2+    220410 O85  0.1+  0.0     220501 T05  0.1-  0.0
211115 V06  0.3-  0.3+    220410 O85  0.0   0.1+    220501 T05  0.1+  0.0
211115 291  0.4-  0.1-    220410 O85  0.5-  0.2-    220501 T05  0.2+  0.3+
211115 291  0.2-  0.4-    220410 O85  0.1+  0.1-    220502 I52  0.0   0.2-
211115 291  0.3-  0.1+    220410 O85  0.1+  0.4-    220502 I52  0.1+  0.1-
211116 I52  0.5-  0.2-    220410 O85  0.1+  0.1-    220502 I52  0.1-  0.0
211116 I52  0.1+  0.2+    220410 K83  0.1+  0.1+    220502 I52  0.1-  0.1-
211116 I52  0.4+  0.1-    220410 K83  0.3+  0.3-    220504 W68  0.2+  0.0
211117 G96  0.1-  0.2+    220410 K83  0.2-  0.0     220504 W68  0.0   0.1+
211117 G96  0.2-  0.1-    220410 G17  0.1+  0.2-    220504 W68  0.0   0.1-
211117 G96  0.0   0.2-    220410 G17  0.0   0.2-    220504 W68  0.2+  0.1+
211125 807 (0.8-  0.5-)   220410 G17  0.0   0.1-    220505 703  0.3-  0.1+
211125 807 (0.2+  2.1+)   220410 L63  0.2+  0.1-    220505 703  0.2+  0.2+
211125 807  0.3+  0.1-    220410 L63  0.2+  0.1+    220505 703  0.2-  0.2+
211125 F51  0.0   0.0     220410 L63  0.0   0.0     220505 703  0.0   0.2-
211125 F51  0.1-  0.0     220411 T05  0.1+  0.1-    220506 D29  0.1-  0.0
211125 F51  0.1-  0.0     220411 T05  0.2+  0.2-    220506 D29  0.1-  0.1-
211125 F51  0.0   0.1-    220411 T05  0.1+  0.3+    220506 D29  0.1-  0.0
211125 F51  0.0   0.1-    220411 T05  0.1-  0.3+    220507 K74  0.1+  0.1+
211125 F51  0.0   0.0     220411 073  0.2-  0.1-    220507 K74  0.1-  0.1-
211125 F51  0.0   0.0     220411 073  0.1+  0.1-    220507 K74  0.2+  0.0
211127 807  0.4+  0.1+    220411 073  0.2-  0.2-    220507 K74  0.1-  0.0
211127 807  0.2-  0.5+    220411 L18  0.5-  0.2-    220507 K74  0.2+  0.2+
211127 807  0.2+  0.2-    220411 L18  0.5-  0.1-    220509 H21  0.4-  0.2-
211130 I52  0.2-  0.0     220411 L18  1.0-  0.1-    220509 H21  0.5-  0.1-
211130 I52  0.4-  0.2+    220411 073  0.2-  0.2-    220509 H21  0.4-  0.2-
211130 I52  0.1-  0.1-    220411 073  1.3-  1.9-    220509 H21  0.5-  0.2-
211130 I52  0.5-  0.4+    220411 K87  0.1+  0.2-    220509 H21  0.4-  0.2-
211203 G96  0.1+  0.1+    220411 K87  0.4-  0.1+    220509 703  0.3-  0.2-
211203 G96  0.1-  0.1-    220411 K87  0.1-  0.3+    220509 703  0.1-  0.0
211203 G96  0.0   0.1-    220411 L18  0.2-  0.4+    220509 703  0.3-  0.3-
211203 I52  0.1-  0.1+    220411 L18  0.2+  0.7-    220509 703  0.1+  0.3-
211203 I52  0.4-  0.4+    220411 L18  0.1-  0.1+    220509 T08  0.1+  0.1+
211203 I52  0.1-  0.9+    220411 L18  0.2-  0.2+    220509 T08  0.1-  0.0
211203 I52  0.2-  0.2+    220411 L01  0.0   0.1-    220509 T08  0.2+  0.3-
211209 I52  0.2-  0.2+    220411 L18  0.0   0.6+    220509 T08  0.0   0.1-
211209 I52  0.2+  0.1-    220411 L01  0.2+  0.1-    220509 G17  0.2-  0.4-
211209 I52  0.2-  0.0     220411 L01  0.3+  0.4+    220509 G17  0.1-  0.1-
211212 I52  0.7+  0.5+    220411 L01  0.0   0.1+    220509 G17  0.2-  0.2-
211212 I52  0.2-  0.1+    220411 L01  0.1+  0.2+    220510 I41  0.1+  0.1+
211212 I52  0.2-  0.1-    220411 L18  0.4-  0.1+    220510 I41  0.0   0.0
211212 I52  0.7+  0.0     220411 L01  0.2+  0.0     220510 I41  0.0   0.0
211215 807  0.2+  0.0     220411 L01  0.2+  0.3+    220510 I41  0.1+  0.0
211215 807  0.1+  0.0     220411 L01  0.1+  0.1+    220510 I41  0.0   0.0
211215 807  0.1+  0.0     220411 L01  0.1+  0.2+    220511 H21  0.4+  0.4-
211225 474  0.6+  0.2+    220412 073  0.1+  0.0     220511 H21  0.2+  0.3-
211225 474  0.0   0.3+    220412 073  0.0   0.1-    220511 H21  0.1+  0.0
211225 474  0.1+  0.4-    220412 073  0.1+  0.2-    220511 H21  0.2-  0.2-
211228 807  0.2-  0.1+    220412 073  0.2-  0.3-    220511 H21  0.0   0.1-
211228 807  0.0   0.3+    220412 073  0.3-  0.0     220511 H21  0.3-  0.1+
211228 807  0.1-  0.0     220413 073  0.4+  0.2-    220511 H21  0.3-  0.0
211230 807  0.1-  0.2-    220413 073 (1.7-  0.6-)   220511 691  0.4-  0.2-
211230 807  0.0   0.1-    220413 073  0.5-  0.2+    220511 691  0.4-  0.0
211230 807  0.0   0.1-    220414 M21  0.0   0.1+    220511 691  0.1+  0.1-
211231 807  0.1+  0.2-    220414 M21  0.1-  0.0     220511 T08  0.1+  0.0
211231 807  0.2+  0.1-    220414 M21  0.0   0.0     220511 T08  0.6+  0.0
211231 807  0.1+  0.3-    220414 M21  0.0   0.1-    220511 T08  0.5+  0.1+
220106 703  1.7-  0.7+    220414 M21  0.2+  0.1-    220511 T08  0.6-  0.4+
220106 703  0.7-  0.6-    220416 K87  0.5+  0.4+    220512 W53  1.1-  0.5+
220106 703  0.7-  0.0     220416 K87  0.7+  0.0     220512 W53  0.2-  1.7+
220106 474  0.5+  0.0     220416 K87  0.6+  0.3+    220512 W53  1.4-  0.2+
220106 474  0.0   0.2+    220417 B72  0.1+  0.1+    220512 W53  0.0   0.7+
220106 474  0.1+  0.0     220417 B72  0.6+  0.5+    220512 W53  0.3-  0.1+
220106 474  0.2+  0.4+    220417 B72  0.3+  0.1+    220512 W53  1.3+  0.3+
220110 691  0.6+  0.1-    220417 B72  0.2+  0.1-    220517 T05  0.9+  0.1-
220110 691  0.3+  0.4-    220417 K74  0.2+  0.2+    220517 T05  0.3+  0.2+
220110 691  0.1+  0.1-    220417 K74  0.1+  0.0     220517 T05  0.0   0.4+
220111 691  0.5+  0.4+    220417 K74  0.2+  0.1-    220517 T05  0.1-  0.5-
220111 691  0.0   0.1-    220417 K87  0.5+  0.1-    220520 W68  0.1-  1.3-
220111 691  0.0   0.2+    220417 K87  0.5+  0.2+    220520 W68  0.7-  0.2+
220113 691  0.1+  0.3+    220417 K87  0.5+  0.0     220520 W68  0.2-  0.2-
220113 691  0.1+  0.1-    220418 W68  0.2-  0.0     220520 W68  0.0   0.1-
220113 691  0.1-  0.1+    220418 W68  0.1-  0.1-    220520 703  0.5-  0.3-
220114 F52  0.0   0.1+    220418 W68  0.1-  0.1+    220520 703  0.6-  0.3+
220114 F52  0.0   0.0     220418 W68  0.0   0.1-    220520 703  0.4+  0.9+
220114 F52  0.0   0.1+    220418 G33  0.0   0.0     220520 703  0.8-  0.3+
220114 F52  0.0   0.0     220418 G33  0.2+  0.3-    220520 D29  0.1-  0.0
220120 F52  0.0   0.0     220418 G33  0.1+  0.3-    220520 D29  0.0   0.1-
220120 F52  0.0   0.1-    220418 G33  0.2+  0.0     220520 D29  0.9-  0.2+
220120 F52  0.1-  0.1-    220418 G33  0.2-  0.1+    220521 T05  0.2+  0.0
220120 F52  0.0   0.0     220418 G33  0.2+  0.6-    220521 T05  0.0   0.5+
220206 T12  0.0   0.1+    220418 130  0.1-  0.1-    220521 T05  0.3-  0.0
220206 T12  0.1-  0.0     220418 130  0.3-  0.2-    220521 T05  0.0   0.2-
220206 T12  0.1-  0.1+    220418 130  0.1+  0.2-    220521 K87  0.1-  0.1+
220206 T12  0.1-  0.1+    220418 130  0.6-  0.2-    220521 K87  0.6+  0.0
220206 T12  0.0   0.1+    220418 K87  0.7+  0.2+    220521 K87  0.7+  0.0
220206 T12  0.1-  0.0     220418 K87  0.2+  0.1-    220522 703  0.7+  0.1-
220208 691  0.3-  0.2+    220418 K87  0.6+  0.6+    220522 703  0.8-  0.2+
220208 691  0.4-  0.1-    220419 T05  0.1+  0.0     220522 703  0.2+  0.5-
220208 691  0.2-  0.0     220419 T05  0.1+  0.0     220522 703  0.3+  1.1-
220227 474  0.0   0.2+    220419 T05  0.1+  0.1-    220523 703  0.6+  0.1+
220227 474  0.1-  0.5+    220419 T05  0.0   0.1-    220523 703  0.1+  0.7+
220227 474  0.1-  0.1-    220419 K87  0.1+  0.3+    220523 703  0.4+  0.5+
220227 474  0.4+  0.2-    220419 K87  0.1+  0.2+    220523 703  1.5+  0.1+
220315 807  0.2-  0.1+    220419 K87  0.2-  0.3+    220523 T08  1.1+  0.4-
220315 807  0.0   0.2+    220419 K74  0.2+  0.0     220523 T08  1.4+  0.5+
220315 807  0.0   0.2-    220419 K74  0.1+  0.0     220523 T08  0.7-  0.1+
220315 I52  0.4-  0.4+    220419 K74  0.1+  0.2+    220523 T08  0.1-  0.2+
220315 I52  0.1+  0.2-    220420 W34  0.0   0.2-    220524 I41  0.1+  0.0
220315 I52  0.1-  0.5+    220420 W34  0.0   0.1-    220524 I41  0.0   0.0
220315 I52  0.5-  0.3+    220420 W34  0.1+  0.1+    220524 I41  0.1-  0.1+
220321 W68  0.8+  0.2+    220420 703  0.2+  0.3+    220524 I41  0.0   0.1+
220321 W68  0.2-  0.7-    220420 703  0.1+  0.2+    220525 T05  0.4+  0.6-
220321 W68  0.3-  0.6-    220420 703  0.1-  0.0     220525 T05  0.2-  0.2-
220321 W68  0.2+  0.3+    220420 703  0.1-  0.2+    220525 T05  0.2+  0.9-
220321 204  0.3-  0.2+    220420 A17  0.0   0.0     220525 T05  0.3-  0.0
220321 204  0.1+  0.1+    220420 A17  0.1-  0.1-    220526 703  1.9+  0.6-
220321 807  0.1+  0.1-    220420 A17  0.0   0.1-    220526 G96  0.1-  0.1+
220321 807  0.2+  0.1-    220421 T08  0.1+  0.1+    220526 703  0.8+  0.7+
220322 807  0.1+  0.1-    220421 T08  0.1+  0.0     220526 G96  0.0   0.0
220323 807  0.1+  0.0     220421 T08  0.0   0.0     220526 G96  0.0   0.1+
220323 807  0.0   0.0     220421 T08  0.1+  0.1+    220526 G96  0.1+  0.1+
220323 807  0.1+  0.1+    220422 W68  0.0   0.0     220526 F52  0.1+  0.0
220323 I52  0.0   0.1-    220422 W68  0.1+  0.1-    220526 F52  0.0   0.0
220323 I52  0.1-  0.1-    220422 W68  0.1-  0.1+    220526 F52  0.0   0.0
220323 I52  0.0   0.1-    220422 W68  0.2-  0.1-    220526 D29  0.1+  0.1+
220324 W68  0.0   0.0     220423 U55  0.4+  0.6+    220526 D29  1.2-  0.2-
220324 W68  0.5-  0.4-    220423 U55  0.7-  0.5-    220526 D29  0.0   0.2-
220324 W68  0.1-  0.6+    220423 U55  0.3+  0.4+    220526 D29  0.0   0.1-
220324 W68  0.5-  0.4+    220423 703  0.0   0.1+    220526 D29  0.0   0.2+
220328 807  0.0   0.2-    220423 703  0.2-  0.2-    220526 K87  0.6-  0.7+
220328 807  0.1+  0.2-    220423 703  0.1-  0.4-    220526 K87  0.1+  0.6+
220328 807  0.0   0.1-    220423 703  0.3-  0.4+    220527 K87  0.3-  0.1+
220331 691  0.1+  0.1+    220425 U68  0.1-  0.3-    220527 T08  0.6-  0.0
220331 691  0.7+  0.2+    220425 U68  0.0   0.0     220527 T08  0.5+  0.4-
220331 691  0.0   0.4+    220425 U68  0.1-  0.2+    220527 T08  0.2+  0.7-
220402 C51  0.2-  0.3-    220425 U68  0.1-  0.1+    220527 T08  0.1+  0.2+
220402 C51 (0.1-  0.6-)   220425 T08  0.1+  0.1+    220601 D29  0.2+  0.0
220403 C51 (0.2-  0.5-)   220425 T08  0.1-  0.1-    220601 D29  0.3+  0.0
220403 C51 (0.1-  1.2-)   220425 T08  0.0   0.1-    220601 D29  0.4-  0.0
220403 C51  0.2-  0.1-    220425 T08  0.1+  0.1+    220603 703  0.5+  0.3+
220403 C51 (0.3-  0.3-)   220426 W68  0.0   0.0     220603 703  0.8-  0.1+
220403 C51 (0.3-  0.2-)   220426 W68  0.0   0.0     220603 703  0.1+  0.7+
220403 C51 (0.3-  0.5-)   220426 W68  0.0   0.0     220603 703  0.4+  0.1-
220403 Z66  1.8+  0.7+    220426 W68  0.1+  0.0     220605 F52  0.1-  0.1+
220403 Z66  2.1+  0.7+    220426 K83  0.1-  0.0     220605 F52  0.0   0.0
220404 W46  0.6-  0.3+    220426 K83  0.1-  0.0     220605 F52  0.0   0.0
220404 W46  0.5-  0.4+    220426 K83  0.1+  0.0     220608 G96  0.2-  0.1+
220404 W46  0.5-  0.1-    220427 F52  0.0   0.1+    220608 G96  0.1-  0.1+
220405 G96  0.0   0.1-    220427 F52  0.2-  0.1-    220608 G96  0.1-  0.3-
220405 G96  0.0   0.1-    220427 F52  0.2-  0.0     220608 G96  0.0   0.1-
220405 G96  0.1-  0.0     220427 T05  0.1-  0.1+    220616 G96  0.2-  0.1+
220405 G96  0.1-  0.0     220427 T05  0.2-  0.1+    220616 G96  0.3-  0.0
220405 B66  0.9+  0.5+    220427 T05  0.1-  0.1-    220616 G96 (1.2-  0.5-)
220405 B66  0.9+  0.5+    220427 T05  0.0   0.1+    220616 G96  0.0   0.1+
220406 703  0.4+  0.6+    220427 033  0.1+  0.0     220619 H21  0.5-  0.9-
220406 703  0.3+  0.3+    220427 033  0.0   0.0     220619 H21  0.1+  0.4-
220406 703  0.4+  0.2+    220427 033  0.1+  0.0     220622 H21  0.8-  0.4-
220406 703  0.5+  0.3+    220427 104  0.1-  0.0     220622 H21  0.8-  0.1-
220407 T05  0.1+  0.1+    220427 104  0.2-  0.0     220624 F52  0.0   0.0
220407 T05  0.0   0.1-    220427 104  0.2-  0.0     220624 F52  0.1+  0.1+
220407 T05  0.1+  0.1+    220427 K83  0.1+  0.0     220624 F52  0.1+  0.0
220407 T05  0.0   0.2-    220427 K83  0.1+  0.1+    220628 F52  0.0   0.1+
220409 703  0.0   0.1+    220427 K83  0.1+  0.1+    220628 F52  0.1-  0.0
220409 703  0.9+  1.1+    220428 703  0.0   0.0     220628 F52  0.1-  0.0
220409 703  0.1+  0.1+    220428 703  0.1+  0.0     230911 T12  0.0   0.0
220409 703  0.0   0.2+    220428 703  0.1+  0.1-    231022 F51  0.1-  0.1-
220409 O85  0.0   0.1-    220428 703  0.1-  0.1+    231022 F51  0.1-  0.3+
220409 O85  0.1+  0.3-    220430 W68  0.3-  0.5-    231022 F51  0.0   0.2+
220409 O85  0.1+  0.2+    220430 W68  0.1+  0.2-    231023 F51  0.1-  0.3+
220409 O85  0.1+  0.0     220430 W68  0.2+  0.0     231023 F51  0.2+  0.2-
220409 O85  0.2+  0.5-    220430 W68  0.1+  0.2+    231023 F51  0.1-  0.1-
220409 O85  0.0   0.3-    220430 G96  0.0   0.0

